STARLINK-34528 (64479 NORAD) Tracking and Keplerian Element Data

This shows tracking and keplerian element data for the satellite.

Feedback or suggestion? Click here.




ElementValue
Catalog64479
NameSTARLINK-34528
Epoch Orbit2898
Epoch Day354.09324075
Epoch Year2025
RAAN126.3899
Inclination53.1591
Eccentricity0.0001015
Argument of Perigee88.0737
Mean Anonmoly272.038
Mean Motion15.30194094
Decay Rate0.000174
L11 64479U 25133H 25354.09324075 .00017400 00000+0 59835-3 0 9997
L22 64479 53.1591 126.3899 0001015 88.0737 272.0380 15.30194094 28989



Live tracking and technical data element details for STARLINK-34528 (NORAD 64479). STARLINK-34528 can be tracked NOW for your location showing map with azimuth and elevation plus other details from your city location.







IsCatalogInMostPopularTable: catalog: 64479, numindb: 4
Update: records affected: 1



GetName: 64479 STARLINK-34528

Hit Count: updated at: Sat, 07 Feb 2026 07:23:51 GMT